SND280 BIRK-BGGH

Flight info

Callsign SND280
Flight time N/A
Altitude 38000
Route SORIR DCT SOSIT/M074F280 UT593 SABAG DCT ASTAN Y47 BAMAM
Aircraft A20N/M-SDE2E3FGHIRWXY/LB1

Departure

Time 2026-05-08 08:58
Airport Reykjavík Domestic Airport (BIRK)

Arrival

Time N/A
Airport Nuuk International Airport (BGGH)
Time Latitude Longitude Altitude Speed Heading
2026-05-08 08:41 64.13168 -21.94507 47 ft 0 kts 356°
2026-05-08 08:52 64.13162 -21.94506 47 ft 1 kts
2026-05-08 08:52 64.13154 -21.94507 47 ft 1 kts 12°
2026-05-08 08:52 64.13147 -21.94512 45 ft 1 kts 22°
2026-05-08 08:53 64.13140 -21.94519 44 ft 1 kts 32°
2026-05-08 08:53 64.13133 -21.94528 44 ft 1 kts 42°
2026-05-08 08:53 64.13128 -21.94540 43 ft 1 kts 52°
2026-05-08 08:53 64.13123 -21.94554 42 ft 1 kts 62°
2026-05-08 08:54 64.13121 -21.94562 42 ft 0 kts 66°
2026-05-08 08:54 64.13121 -21.94560 42 ft 0 kts 66°
2026-05-08 08:54 64.13124 -21.94540 43 ft 2 kts 75°
2026-05-08 08:54 64.13129 -21.94482 45 ft 5 kts 80°
2026-05-08 08:55 64.13136 -21.94372 46 ft 9 kts 82°
2026-05-08 08:55 64.13145 -21.94204 47 ft 12 kts 86°
2026-05-08 08:55 64.13147 -21.93978 47 ft 16 kts 84°
2026-05-08 08:55 64.13123 -21.93724 46 ft 18 kts 122°
2026-05-08 08:56 64.13026 -21.93569 45 ft 18 kts 182°
2026-05-08 08:56 64.12907 -21.93511 50 ft 18 kts 151°
2026-05-08 08:56 64.12786 -21.93488 53 ft 18 kts 174°
2026-05-08 08:56 64.12647 -21.93457 53 ft 22 kts 174°
2026-05-08 08:57 64.12553 -21.93437 51 ft 1 kts 174°
2026-05-08 08:57 64.12533 -21.93432 53 ft 5 kts 174°
2026-05-08 08:57 64.12483 -21.93426 53 ft 9 kts 181°
2026-05-08 08:57 64.12437 -21.93516 53 ft 10 kts 258°
2026-05-08 08:58 64.12457 -21.93661 51 ft 11 kts 346°
2026-05-08 08:58 64.12729 -21.93721 52 ft 82 kts 356°
2026-05-08 08:58 64.13555 -21.93862 91 ft 148 kts 357°
2026-05-08 08:58 64.14620 -21.94032 711 ft 164 kts 356°
2026-05-08 08:59 64.15808 -21.94379 1486 ft 179 kts 351°
2026-05-08 08:59 64.17066 -21.95011 2284 ft 191 kts 345°
2026-05-08 08:59 64.18382 -21.95932 3019 ft 206 kts 341°
2026-05-08 08:59 64.19707 -21.97342 3829 ft 216 kts 327°
2026-05-08 09:00 64.20780 -21.99759 4906 ft 218 kts 307°
2026-05-08 09:00 64.21349 -22.02992 6026 ft 221 kts 282°
2026-05-08 09:00 64.21374 -22.06567 7014 ft 227 kts 273°
2026-05-08 09:00 64.21341 -22.10275 7829 ft 236 kts 275°
2026-05-08 09:01 64.21480 -22.14102 8621 ft 244 kts 282°
2026-05-08 09:01 64.21730 -22.18023 9469 ft 252 kts 281°
2026-05-08 09:01 64.21970 -22.22076 10344 ft 259 kts 280°
2026-05-08 09:01 64.22288 -22.26207 10869 ft 276 kts 285°
2026-05-08 09:02 64.22762 -22.30667 11230 ft 298 kts 286°
2026-05-08 09:02 64.23259 -22.35467 11675 ft 316 kts 285°
2026-05-08 09:02 64.23723 -22.40473 12468 ft 322 kts 284°
2026-05-08 09:02 64.24157 -22.45564 13328 ft 326 kts 283°
2026-05-08 09:03 64.24577 -22.50726 14166 ft 331 kts 283°
2026-05-08 09:03 64.24994 -22.55960 14934 ft 334 kts 283°
2026-05-08 09:03 64.25411 -22.61239 15700 ft 337 kts 284°
2026-05-08 09:03 64.25829 -22.66578 16457 ft 340 kts 284°
2026-05-08 09:04 64.26249 -22.71957 17199 ft 344 kts 285°
2026-05-08 09:04 64.26674 -22.77411 17949 ft 347 kts 285°
2026-05-08 09:04 64.27101 -22.82913 18655 ft 350 kts 286°
2026-05-08 09:04 64.27524 -22.88378 19277 ft 353 kts 286°
2026-05-08 09:05 64.27956 -22.93979 19905 ft 356 kts 287°
2026-05-08 09:05 64.28387 -22.99608 20532 ft 359 kts 287°
2026-05-08 09:05 64.28822 -23.05313 21161 ft 362 kts 287°
2026-05-08 09:05 64.29256 -23.11036 21769 ft 365 kts 287°
2026-05-08 09:06 64.29694 -23.16826 22359 ft 368 kts 288°
2026-05-08 09:06 64.30134 -23.22686 22976 ft 371 kts 288°
2026-05-08 09:06 64.30575 -23.28578 23573 ft 375 kts 288°
2026-05-08 09:06 64.31011 -23.34445 24107 ft 378 kts 288°
2026-05-08 09:07 64.31453 -23.40426 24623 ft 380 kts 288°
2026-05-08 09:07 64.31896 -23.46456 25128 ft 382 kts 288°
2026-05-08 09:07 64.32338 -23.52519 25621 ft 384 kts 288°
2026-05-08 09:07 64.32781 -23.58618 26104 ft 386 kts 288°
2026-05-08 09:08 64.33224 -23.64761 26577 ft 389 kts 288°
2026-05-08 09:08 64.33666 -23.70929 27026 ft 390 kts 288°
2026-05-08 09:08 64.34107 -23.77108 27523 ft 390 kts 287°
2026-05-08 09:08 64.34546 -23.83307 27950 ft 393 kts 287°
2026-05-08 09:09 64.34986 -23.89542 28361 ft 395 kts 287°
2026-05-08 09:09 64.35426 -23.95817 28774 ft 397 kts 287°
2026-05-08 09:09 64.35858 -24.02031 29167 ft 399 kts 287°
2026-05-08 09:09 64.36295 -24.08365 29547 ft 401 kts 287°
2026-05-08 09:10 64.36735 -24.14768 29909 ft 404 kts 287°
2026-05-08 09:10 64.37171 -24.21173 30288 ft 406 kts 287°
2026-05-08 09:10 64.37607 -24.27619 30599 ft 408 kts 287°
2026-05-08 09:10 64.38043 -24.34104 30908 ft 410 kts 287°
2026-05-08 09:11 64.38479 -24.40624 31208 ft 413 kts 287°
2026-05-08 09:11 64.38914 -24.47191 31538 ft 414 kts 287°
2026-05-08 09:11 64.39345 -24.53754 31931 ft 414 kts 287°
2026-05-08 09:11 64.39773 -24.60321 32334 ft 413 kts 287°
2026-05-08 09:12 64.40200 -24.66889 32722 ft 413 kts 287°
2026-05-08 09:12 64.40647 -24.73333 33024 ft 410 kts 288°
2026-05-08 09:12 64.41245 -24.79779 33391 ft 408 kts 290°
2026-05-08 09:12 64.41898 -24.86172 33749 ft 407 kts 291°
2026-05-08 09:13 64.42551 -24.92552 34099 ft 407 kts 290°
2026-05-08 09:13 64.43189 -24.98940 34418 ft 407 kts 290°
2026-05-08 09:13 64.43813 -25.05345 34656 ft 408 kts 289°
2026-05-08 09:13 64.44428 -25.11772 34904 ft 409 kts 289°
2026-05-08 09:14 64.45035 -25.18212 35131 ft 410 kts 289°
2026-05-08 09:14 64.45641 -25.24691 35354 ft 411 kts 288°
2026-05-08 09:14 64.46242 -25.31168 35582 ft 412 kts 288°
2026-05-08 09:14 64.46843 -25.37670 35815 ft 412 kts 288°
2026-05-08 09:15 64.47433 -25.44095 36013 ft 413 kts 288°
2026-05-08 09:15 64.48030 -25.50623 36230 ft 414 kts 288°
2026-05-08 09:15 64.48624 -25.57154 36434 ft 414 kts 288°
2026-05-08 09:15 64.49218 -25.63721 36638 ft 415 kts 287°
2026-05-08 09:16 64.49807 -25.70274 36834 ft 416 kts 287°
2026-05-08 09:16 64.50395 -25.76847 37028 ft 416 kts 287°
2026-05-08 09:16 64.50980 -25.83417 37212 ft 417 kts 287°
2026-05-08 09:16 64.51567 -25.90049 37395 ft 417 kts 287°
2026-05-08 09:17 64.52143 -25.96593 37580 ft 418 kts 287°
2026-05-08 09:17 64.52722 -26.03205 37753 ft 418 kts 287°
2026-05-08 09:17 64.53298 -26.09828 37924 ft 419 kts 286°
2026-05-08 09:17 64.53875 -26.16498 38092 ft 419 kts 286°
2026-05-08 09:18 64.54447 -26.23144 38258 ft 420 kts 286°
2026-05-08 09:18 64.55017 -26.29806 38269 ft 420 kts 286°
2026-05-08 09:18 64.56142 -26.43070 38279 ft 417 kts 285°
2026-05-08 09:19 64.57250 -26.56263 38279 ft 418 kts 285°
2026-05-08 09:19 64.58352 -26.69552 38246 ft 417 kts 285°
2026-05-08 09:20 64.59436 -26.82795 38277 ft 416 kts 285°
2026-05-08 09:20 64.60509 -26.96033 38276 ft 416 kts 285°
2026-05-08 09:21 64.61572 -27.09321 38278 ft 416 kts 285°
2026-05-08 09:23 64.65190 -27.55793 38277 ft 417 kts 284°
2026-05-08 09:23 64.66200 -27.69119 38229 ft 417 kts 284°
2026-05-08 09:24 64.67028 -27.80196 38284 ft 416 kts 283°
2026-05-08 09:24 64.68014 -27.93533 38272 ft 417 kts 283°
2026-05-08 09:25 64.68989 -28.06883 38281 ft 417 kts 283°
2026-05-08 09:25 64.69952 -28.20246 38278 ft 417 kts 283°
2026-05-08 09:26 64.70904 -28.33636 38280 ft 417 kts 283°
2026-05-08 09:26 64.71845 -28.47051 38278 ft 418 kts 283°
2026-05-08 09:27 64.72774 -28.60490 38283 ft 418 kts 283°
2026-05-08 09:27 64.73685 -28.73828 38269 ft 417 kts 283°
2026-05-08 09:28 64.74588 -28.87245 38281 ft 417 kts 282°
2026-05-08 09:28 64.75481 -29.00699 38281 ft 418 kts 282°
2026-05-08 09:29 64.76362 -29.14169 38283 ft 418 kts 282°
2026-05-08 09:29 64.77229 -29.27630 38285 ft 418 kts 282°
2026-05-08 09:30 64.78086 -29.41115 38282 ft 418 kts 282°
2026-05-08 09:30 64.78929 -29.54597 38290 ft 418 kts 282°
2026-05-08 09:31 64.79755 -29.68002 38292 ft 418 kts 282°
2026-05-08 09:31 64.80574 -29.81498 38276 ft 417 kts 281°
2026-05-08 09:32 64.81388 -29.95003 38279 ft 417 kts 281°
2026-05-08 09:32 64.82366 -30.08417 38279 ft 415 kts 287°
2026-05-08 09:33 64.83818 -30.21531 38278 ft 415 kts 288°
2026-05-08 09:33 64.85232 -30.34611 38281 ft 415 kts 287°
2026-05-08 09:34 64.86590 -30.47836 38286 ft 416 kts 286°
2026-05-08 09:34 64.87920 -30.61086 38286 ft 416 kts 286°
2026-05-08 09:35 64.89237 -30.74343 38284 ft 416 kts 286°
2026-05-08 09:35 64.90535 -30.87525 38288 ft 415 kts 286°
2026-05-08 09:36 64.91827 -31.00782 38287 ft 415 kts 286°
2026-05-08 09:36 64.93109 -31.14070 38287 ft 415 kts 286°
2026-05-08 09:37 64.94379 -31.27356 38290 ft 415 kts 285°
2026-05-08 09:37 64.95636 -31.40661 38290 ft 415 kts 285°
2026-05-08 09:38 64.96871 -31.53859 38293 ft 414 kts 285°
2026-05-08 09:38 64.98102 -31.67152 38285 ft 414 kts 285°
2026-05-08 09:39 64.99319 -31.80439 38290 ft 414 kts 285°
2026-05-08 09:39 65.00527 -31.93771 38289 ft 414 kts 285°
2026-05-08 09:40 65.01713 -32.07001 38284 ft 410 kts 285°
2026-05-08 09:40 65.02880 -32.20148 38289 ft 411 kts 284°
2026-05-08 09:41 65.04039 -32.33355 38294 ft 411 kts 284°
2026-05-08 09:41 65.05191 -32.46620 38288 ft 411 kts 284°
2026-05-08 09:42 65.06328 -32.59867 38286 ft 411 kts 284°
2026-05-08 09:42 65.07455 -32.73146 38285 ft 411 kts 284°
2026-05-08 09:43 65.08571 -32.86449 38289 ft 411 kts 284°
2026-05-08 09:43 65.09674 -32.99748 38291 ft 411 kts 284°
2026-05-08 09:44 65.10761 -33.13000 38291 ft 410 kts 283°
2026-05-08 09:44 65.11840 -33.26298 38282 ft 411 kts 283°
2026-05-08 09:45 65.12910 -33.39658 38291 ft 412 kts 283°
2026-05-08 09:45 65.13969 -33.53028 38289 ft 412 kts 283°
2026-05-08 09:46 65.15017 -33.66432 38293 ft 413 kts 283°
2026-05-08 09:46 65.16048 -33.79782 38293 ft 413 kts 283°
2026-05-08 09:47 65.17074 -33.93235 38301 ft 413 kts 283°
2026-05-08 09:47 65.18089 -34.06706 38295 ft 413 kts 282°
2026-05-08 09:48 65.19093 -34.20209 38299 ft 414 kts 282°
2026-05-08 09:48 65.20081 -34.33652 38290 ft 410 kts 282°
2026-05-08 09:49 65.21051 -34.47046 38288 ft 410 kts 282°
2026-05-08 09:49 65.22011 -34.60449 38294 ft 410 kts 282°
2026-05-08 09:50 65.22951 -34.73766 38286 ft 410 kts 282°
2026-05-08 09:50 65.23888 -34.87209 38293 ft 410 kts 281°
2026-05-08 09:51 65.24813 -35.00667 38289 ft 411 kts 281°
2026-05-08 09:51 65.25727 -35.14122 38289 ft 411 kts 281°
2026-05-08 09:52 65.26616 -35.27593 38286 ft 411 kts 280°
2026-05-08 09:52 65.27241 -35.41184 38267 ft 411 kts 278°
2026-05-08 09:53 65.27885 -35.54604 38288 ft 408 kts 278°
2026-05-08 09:53 65.28522 -35.68103 38288 ft 409 kts 278°
2026-05-08 09:54 65.29132 -35.81623 38293 ft 409 kts 278°
2026-05-08 09:54 65.29726 -35.95171 38287 ft 409 kts 278°
2026-05-08 09:55 65.30307 -36.08711 38290 ft 409 kts 278°
2026-05-08 09:55 65.30872 -36.22165 38288 ft 409 kts 277°
2026-05-08 09:56 65.31428 -36.35706 38287 ft 409 kts 277°
2026-05-08 09:56 65.31973 -36.49256 38284 ft 409 kts 277°
2026-05-08 09:57 65.32765 -36.69543 38283 ft 408 kts 277°
2026-05-08 09:57 65.33279 -36.83102 38284 ft 408 kts 277°
2026-05-08 09:58 65.33780 -36.96649 38287 ft 408 kts 277°
2026-05-08 09:58 65.34271 -37.10221 38285 ft 409 kts 277°
2026-05-08 09:59 65.34745 -37.23712 38280 ft 409 kts 277°
2026-05-08 09:59 65.35212 -37.37328 38283 ft 410 kts 276°
2026-05-08 10:00 65.35666 -37.50947 38291 ft 410 kts 276°
2026-05-08 10:00 65.36109 -37.64601 38266 ft 410 kts 276°
2026-05-08 10:01 65.36536 -37.78077 38278 ft 407 kts 276°
2026-05-08 10:01 65.36950 -37.91635 38283 ft 408 kts 275°
2026-05-08 10:02 65.37354 -38.05228 38283 ft 408 kts 275°
2026-05-08 10:02 65.37746 -38.18810 38270 ft 408 kts 275°
2026-05-08 10:03 65.38125 -38.32390 38284 ft 408 kts 275°
2026-05-08 10:03 65.38490 -38.45898 38284 ft 408 kts 275°
2026-05-08 10:04 65.38845 -38.59512 38279 ft 408 kts 275°
2026-05-08 10:04 65.39188 -38.73121 38281 ft 408 kts 275°
2026-05-08 10:05 65.39520 -38.86726 38280 ft 408 kts 274°
2026-05-08 10:05 65.39837 -39.00255 38280 ft 408 kts 274°
2026-05-08 10:06 65.40142 -39.13867 38281 ft 408 kts 274°
2026-05-08 10:06 65.40436 -39.27487 38270 ft 409 kts 274°
2026-05-08 10:07 65.40718 -39.41136 38281 ft 409 kts 273°
2026-05-08 10:07 65.40987 -39.54694 38265 ft 409 kts 273°
2026-05-08 10:08 65.41117 -39.61512 38043 ft 409 kts 273°
2026-05-08 10:08 65.41244 -39.68308 37762 ft 406 kts 273°
2026-05-08 10:08 65.41367 -39.75076 37485 ft 404 kts 273°
2026-05-08 10:08 65.41486 -39.81802 37216 ft 403 kts 273°
2026-05-08 10:09 65.41605 -39.88544 36913 ft 402 kts 273°
2026-05-08 10:09 65.41689 -39.95268 36653 ft 403 kts 270°
2026-05-08 10:09 65.41576 -40.01986 36395 ft 403 kts 266°
2026-05-08 10:09 65.41228 -40.08657 36147 ft 402 kts 262°
2026-05-08 10:10 65.40789 -40.15275 35887 ft 401 kts 262°
2026-05-08 10:10 65.40375 -40.21884 35636 ft 400 kts 263°
2026-05-08 10:10 65.39972 -40.28394 35383 ft 399 kts 263°
2026-05-08 10:10 65.39560 -40.34985 35135 ft 398 kts 263°
2026-05-08 10:11 65.39144 -40.41547 34896 ft 397 kts 262°
2026-05-08 10:11 65.38724 -40.48086 34655 ft 396 kts 262°
2026-05-08 10:11 65.38300 -40.54630 34415 ft 395 kts 262°
2026-05-08 10:11 65.37874 -40.61146 34163 ft 394 kts 262°
2026-05-08 10:12 65.37451 -40.67564 33886 ft 395 kts 262°
2026-05-08 10:12 65.37019 -40.74079 33612 ft 396 kts 262°
2026-05-08 10:12 65.36582 -40.80622 33335 ft 397 kts 262°
2026-05-08 10:12 65.36142 -40.87177 33036 ft 398 kts 262°
2026-05-08 10:13 65.35698 -40.93753 32793 ft 400 kts 261°
2026-05-08 10:13 65.35250 -41.00334 32535 ft 401 kts 261°
2026-05-08 10:13 65.34951 -41.04697 32358 ft 401 kts 261°
2026-05-08 10:13 65.34505 -41.11161 32104 ft 401 kts 261°
2026-05-08 10:14 65.34048 -41.17740 31849 ft 402 kts 261°
2026-05-08 10:14 65.33436 -41.26489 31512 ft 403 kts 261°
2026-05-08 10:14 65.32970 -41.33109 31259 ft 403 kts 261°
2026-05-08 10:14 65.32654 -41.37579 31090 ft 403 kts 261°
2026-05-08 10:15 65.32188 -41.44113 30828 ft 403 kts 261°
2026-05-08 10:15 65.31715 -41.50724 30580 ft 401 kts 261°
2026-05-08 10:15 65.31242 -41.57271 30304 ft 399 kts 261°
2026-05-08 10:15 65.30768 -41.63803 30023 ft 398 kts 261°